Data supplied by UK-AIR on 5/4/2008
All Data GMT hour ending 
Status: R =Ratified P=Provisional,P*=As supplied
,,Wicken Fen,,,,,,,,,,,,,,,,,,,,,,,
Date,time,"Nitric oxide",status,unit,"Nitrogen dioxide",status,unit,"Nitrogen oxides as nitrogen dioxide",status,unit,"Ozone",status,unit,"Sulphur dioxide",status,unit
 
01-01-2002,01:00,,,,,,,,,,,,,,,
01-01-2002,02:00,12.6,R,ugm-3,20.8,R,ugm-3,40.1,R,ugm-3,2,R,ugm-3,4.0,R,ugm-3
01-01-2002,03:00,8.6,R,ugm-3,18.5,R,ugm-3,31.7,R,ugm-3,2,R,ugm-3,3.5,R,ugm-3
01-01-2002,04:00,6.6,R,ugm-3,17.4,R,ugm-3,27.5,R,ugm-3,2,R,ugm-3,3.5,R,ugm-3
01-01-2002,05:00,4.8,R,ugm-3,16.2,R,ugm-3,23.5,R,ugm-3,2,R,ugm-3,2.7,R,ugm-3
01-01-2002,06:00,3.1,R,ugm-3,14.9,R,ugm-3,19.7,R,ugm-3,2,R,ugm-3,2.1,R,ugm-3
01-01-2002,07:00,1.9,R,ugm-3,13.6,R,ugm-3,16.4,R,ugm-3,2,R,ugm-3,2.7,R,ugm-3
01-01-2002,08:00,1.6,R,ugm-3,13.0,R,ugm-3,15.5,R,ugm-3,4,R,ugm-3,3.2,R,ugm-3
01-01-2002,09:00,2.6,R,ugm-3,10.7,R,ugm-3,14.7,R,ugm-3,8,R,ugm-3,3.5,R,ugm-3
01-01-2002,10:00,6.9,R,ugm-3,12.8,R,ugm-3,23.3,R,ugm-3,12,R,ugm-3,5.1,R,ugm-3
01-01-2002,11:00,10.9,R,ugm-3,18.1,R,ugm-3,34.8,R,ugm-3,18,R,ugm-3,10.1,R,ugm-3
01-01-2002,12:00,11.6,R,ugm-3,21.6,R,ugm-3,39.3,R,ugm-3,22,R,ugm-3,12.2,R,ugm-3
01-01-2002,13:00,9.3,R,ugm-3,20.2,R,ugm-3,34.4,R,ugm-3,26,R,ugm-3,15.2,R,ugm-3
01-01-2002,14:00,8.1,R,ugm-3,21.6,R,ugm-3,34.0,R,ugm-3,24,R,ugm-3,13.6,R,ugm-3
01-01-2002,15:00,6.9,R,ugm-3,21.2,R,ugm-3,31.7,R,ugm-3,20,R,ugm-3,17.3,R,ugm-3
01-01-2002,16:00,3.5,R,ugm-3,17.6,R,ugm-3,22.9,R,ugm-3,16,R,ugm-3,7.4,R,ugm-3
01-01-2002,17:00,,,,,,,,,,,,,,,
01-01-2002,18:00,,,,,,,,,,,,,,,
01-01-2002,19:00,18.8,R,ugm-3,31.3,R,ugm-3,60.0,R,ugm-3,2,R,ugm-3,4.0,R,ugm-3
01-01-2002,20:00,18.5,R,ugm-3,27.7,R,ugm-3,56.0,R,ugm-3,2,R,ugm-3,4.0,R,ugm-3
01-01-2002,21:00,13.0,R,ugm-3,25.8,R,ugm-3,45.6,R,ugm-3,2,R,ugm-3,2.7,R,ugm-3
01-01-2002,22:00,11.6,R,ugm-3,28.7,R,ugm-3,46.4,R,ugm-3,2,R,ugm-3,4.0,R,ugm-3
01-01-2002,23:00,7.1,R,ugm-3,27.7,R,ugm-3,38.6,R,ugm-3,2,R,ugm-3,4.3,R,ugm-3
01-01-2002,24:00,6.8,R,ugm-3,22.3,R,ugm-3,32.7,R,ugm-3,2,R,ugm-3,2.9,R,ugm-3
02-01-2002,01:00,2.4,R,ugm-3,29.8,R,ugm-3,33.4,R,ugm-3,2,R,ugm-3,3.2,R,ugm-3
02-01-2002,02:00,5.3,R,ugm-3,27.7,R,ugm-3,35.7,R,ugm-3,2,R,ugm-3,3.5,R,ugm-3
02-01-2002,03:00,7.5,R,ugm-3,24.3,R,ugm-3,35.7,R,ugm-3,2,R,ugm-3,3.2,R,ugm-3
02-01-2002,04:00,4.4,R,ugm-3,23.1,R,ugm-3,29.8,R,ugm-3,4,R,ugm-3,3.2,R,ugm-3
02-01-2002,05:00,2.6,R,ugm-3,18.7,R,ugm-3,22.7,R,ugm-3,8,R,ugm-3,3.2,R,ugm-3
02-01-2002,06:00,1.6,R,ugm-3,17.8,R,ugm-3,20.2,R,ugm-3,8,R,ugm-3,1.9,R,ugm-3
02-01-2002,07:00,0.8,R,ugm-3,10.1,R,ugm-3,11.3,R,ugm-3,16,R,ugm-3,0.8,R,ugm-3
02-01-2002,08:00,1.6,R,ugm-3,13.6,R,ugm-3,16.0,R,ugm-3,16,R,ugm-3,0.5,R,ugm-3
02-01-2002,09:00,4.4,R,ugm-3,13.2,R,ugm-3,19.9,R,ugm-3,12,R,ugm-3,0.8,R,ugm-3
02-01-2002,10:00,19.5,R,ugm-3,20.6,R,ugm-3,50.4,R,ugm-3,12,R,ugm-3,2.9,R,ugm-3
02-01-2002,11:00,8.3,R,ugm-3,17.2,R,ugm-3,29.8,R,ugm-3,26,R,ugm-3,2.9,R,ugm-3
02-01-2002,12:00,14.6,R,ugm-3,18.9,R,ugm-3,41.3,R,ugm-3,32,R,ugm-3,3.2,R,ugm-3
02-01-2002,13:00,5.1,R,ugm-3,9.7,R,ugm-3,17.6,R,ugm-3,34,R,ugm-3,1.9,R,ugm-3
02-01-2002,14:00,14.4,R,ugm-3,17.6,R,ugm-3,39.5,R,ugm-3,36,R,ugm-3,3.5,R,ugm-3
02-01-2002,15:00,3.0,R,ugm-3,10.1,R,ugm-3,14.7,R,ugm-3,42,R,ugm-3,4.5,R,ugm-3
02-01-2002,16:00,1.6,R,ugm-3,11.1,R,ugm-3,13.6,R,ugm-3,38,R,ugm-3,2.1,R,ugm-3
02-01-2002,17:00,1.6,R,ugm-3,13.6,R,ugm-3,16.0,R,ugm-3,34,R,ugm-3,2.1,R,ugm-3
02-01-2002,18:00,1.6,R,ugm-3,17.0,R,ugm-3,19.5,R,ugm-3,28,R,ugm-3,2.9,R,ugm-3
02-01-2002,19:00,1.6,R,ugm-3,13.2,R,ugm-3,15.7,R,ugm-3,34,R,ugm-3,1.9,R,ugm-3
02-01-2002,20:00,1.6,R,ugm-3,13.2,R,ugm-3,15.7,R,ugm-3,32,R,ugm-3,1.3,R,ugm-3
02-01-2002,21:00,1.6,R,ugm-3,22.3,R,ugm-3,24.8,R,ugm-3,22,R,ugm-3,2.4,R,ugm-3
02-01-2002,22:00,1.4,R,ugm-3,29.8,R,ugm-3,31.9,R,ugm-3,18,R,ugm-3,4.0,R,ugm-3
02-01-2002,23:00,1.4,R,ugm-3,22.2,R,ugm-3,24.3,R,ugm-3,24,R,ugm-3,3.2,R,ugm-3
02-01-2002,24:00,1.4,R,ugm-3,21.4,R,ugm-3,23.5,R,ugm-3,26,R,ugm-3,4.0,R,ugm-3
03-01-2002,01:00,0.8,R,ugm-3,27.9,R,ugm-3,29.0,R,ugm-3,20,R,ugm-3,5.3,R,ugm-3
03-01-2002,02:00,0.8,R,ugm-3,29.0,R,ugm-3,30.2,R,ugm-3,18,R,ugm-3,4.3,R,ugm-3
03-01-2002,03:00,0.8,R,ugm-3,24.4,R,ugm-3,25.6,R,ugm-3,20,R,ugm-3,3.5,R,ugm-3
03-01-2002,04:00,0.8,R,ugm-3,18.1,R,ugm-3,19.3,R,ugm-3,28,R,ugm-3,3.5,R,ugm-3
03-01-2002,05:00,0.8,R,ugm-3,15.3,R,ugm-3,16.4,R,ugm-3,30,R,ugm-3,2.9,R,ugm-3
03-01-2002,06:00,0.8,R,ugm-3,17.4,R,ugm-3,18.5,R,ugm-3,24,R,ugm-3,2.7,R,ugm-3
03-01-2002,07:00,,,,,,,,,,,,,,,
03-01-2002,08:00,0.8,R,ugm-3,11.8,R,ugm-3,13.0,R,ugm-3,32,R,ugm-3,2.1,R,ugm-3
03-01-2002,09:00,0.8,R,ugm-3,10.1,R,ugm-3,11.3,R,ugm-3,34,R,ugm-3,2.4,R,ugm-3
03-01-2002,10:00,1.8,R,ugm-3,11.3,R,ugm-3,13.9,R,ugm-3,34,R,ugm-3,2.9,R,ugm-3
03-01-2002,11:00,3.4,R,ugm-3,13.8,R,ugm-3,18.9,R,ugm-3,32,R,ugm-3,3.2,R,ugm-3
03-01-2002,12:00,6.1,R,ugm-3,17.2,R,ugm-3,26.5,R,ugm-3,30,R,ugm-3,4.0,R,ugm-3
03-01-2002,13:00,4.6,R,ugm-3,16.6,R,ugm-3,23.7,R,ugm-3,32,R,ugm-3,3.7,R,ugm-3
03-01-2002,14:00,5.5,R,ugm-3,18.9,R,ugm-3,27.3,R,ugm-3,30,R,ugm-3,3.2,R,ugm-3
03-01-2002,15:00,6.0,R,ugm-3,26.0,R,ugm-3,35.1,R,ugm-3,22,R,ugm-3,3.7,R,ugm-3
03-01-2002,16:00,8.5,R,ugm-3,33.8,R,ugm-3,46.8,R,ugm-3,10,R,ugm-3,4.3,R,ugm-3
03-01-2002,17:00,4.4,R,ugm-3,36.3,R,ugm-3,43.0,R,ugm-3,6,R,ugm-3,3.7,R,ugm-3
03-01-2002,18:00,2.3,R,ugm-3,37.1,R,ugm-3,40.5,R,ugm-3,6,R,ugm-3,3.2,R,ugm-3
03-01-2002,19:00,1.0,R,ugm-3,35.1,R,ugm-3,36.7,R,ugm-3,8,R,ugm-3,4.0,R,ugm-3
03-01-2002,20:00,0.8,R,ugm-3,32.5,R,ugm-3,33.6,R,ugm-3,10,R,ugm-3,4.0,R,ugm-3
03-01-2002,21:00,0.8,R,ugm-3,30.0,R,ugm-3,31.1,R,ugm-3,12,R,ugm-3,4.3,R,ugm-3
03-01-2002,22:00,0.8,R,ugm-3,28.7,R,ugm-3,29.8,R,ugm-3,12,R,ugm-3,4.0,R,ugm-3
03-01-2002,23:00,0.8,R,ugm-3,24.1,R,ugm-3,25.2,R,ugm-3,16,R,ugm-3,3.2,R,ugm-3
03-01-2002,24:00,0.4,R,ugm-3,22.5,R,ugm-3,23.1,R,ugm-3,14,R,ugm-3,2.4,R,ugm-3
04-01-2002,01:00,0.8,R,ugm-3,24.6,R,ugm-3,25.8,R,ugm-3,10,R,ugm-3,2.1,R,ugm-3
04-01-2002,02:00,0.8,R,ugm-3,15.1,R,ugm-3,16.2,R,ugm-3,22,R,ugm-3,1.6,R,ugm-3
04-01-2002,03:00,0.8,R,ugm-3,14.3,R,ugm-3,15.5,R,ugm-3,22,R,ugm-3,1.9,R,ugm-3
04-01-2002,04:00,0.6,R,ugm-3,16.0,R,ugm-3,17.0,R,ugm-3,24,R,ugm-3,2.1,R,ugm-3
04-01-2002,05:00,0.6,R,ugm-3,13.0,R,ugm-3,13.9,R,ugm-3,24,R,ugm-3,1.9,R,ugm-3
04-01-2002,06:00,0.6,R,ugm-3,15.7,R,ugm-3,16.6,R,ugm-3,18,R,ugm-3,1.9,R,ugm-3
04-01-2002,07:00,0.8,R,ugm-3,22.0,R,ugm-3,23.1,R,ugm-3,14,R,ugm-3,2.1,R,ugm-3
04-01-2002,08:00,2.8,R,ugm-3,27.9,R,ugm-3,32.1,R,ugm-3,8,R,ugm-3,2.1,R,ugm-3
04-01-2002,09:00,6.1,R,ugm-3,29.0,R,ugm-3,38.4,R,ugm-3,8,R,ugm-3,3.2,R,ugm-3
04-01-2002,10:00,4.4,R,ugm-3,20.4,R,ugm-3,27.1,R,ugm-3,18,R,ugm-3,4.3,R,ugm-3
04-01-2002,11:00,4.6,R,ugm-3,16.8,R,ugm-3,23.9,R,ugm-3,28,R,ugm-3,4.8,R,ugm-3
04-01-2002,12:00,5.5,R,ugm-3,17.8,R,ugm-3,26.2,R,ugm-3,30,R,ugm-3,5.1,R,ugm-3
04-01-2002,13:00,5.4,R,ugm-3,17.6,R,ugm-3,25.8,R,ugm-3,30,R,ugm-3,5.1,R,ugm-3
04-01-2002,14:00,5.5,R,ugm-3,19.9,R,ugm-3,28.3,R,ugm-3,28,R,ugm-3,5.9,R,ugm-3
04-01-2002,15:00,4.8,R,ugm-3,23.1,R,ugm-3,30.4,R,ugm-3,22,R,ugm-3,4.8,R,ugm-3
04-01-2002,16:00,3.8,R,ugm-3,25.4,R,ugm-3,31.1,R,ugm-3,12,R,ugm-3,2.7,R,ugm-3
04-01-2002,17:00,2.4,R,ugm-3,31.9,R,ugm-3,35.5,R,ugm-3,4,R,ugm-3,2.4,R,ugm-3
04-01-2002,18:00,3.6,R,ugm-3,34.6,R,ugm-3,40.1,R,ugm-3,2,R,ugm-3,2.9,R,ugm-3
04-01-2002,19:00,3.4,R,ugm-3,32.9,R,ugm-3,38.0,R,ugm-3,2,R,ugm-3,6.4,R,ugm-3
04-01-2002,20:00,4.0,R,ugm-3,33.6,R,ugm-3,39.7,R,ugm-3,2,R,ugm-3,10.4,R,ugm-3
04-01-2002,21:00,3.8,R,ugm-3,29.2,R,ugm-3,35.0,R,ugm-3,2,R,ugm-3,6.4,R,ugm-3
04-01-2002,22:00,1.6,R,ugm-3,30.2,R,ugm-3,32.7,R,ugm-3,4,R,ugm-3,4.8,R,ugm-3
04-01-2002,23:00,2.3,R,ugm-3,30.6,R,ugm-3,34.0,R,ugm-3,2,R,ugm-3,5.6,R,ugm-3
04-01-2002,24:00,2.0,R,ugm-3,31.9,R,ugm-3,35.0,R,ugm-3,2,R,ugm-3,4.0,R,ugm-3
05-01-2002,01:00,2.1,R,ugm-3,32.9,R,ugm-3,36.1,R,ugm-3,2,R,ugm-3,3.2,R,ugm-3
05-01-2002,02:00,8.1,R,ugm-3,35.5,R,ugm-3,47.9,R,ugm-3,2,R,ugm-3,4.8,R,ugm-3
05-01-2002,03:00,9.6,R,ugm-3,39.0,R,ugm-3,53.7,R,ugm-3,2,R,ugm-3,5.1,R,ugm-3
05-01-2002,04:00,9.6,R,ugm-3,40.3,R,ugm-3,55.0,R,ugm-3,2,R,ugm-3,5.3,R,ugm-3
05-01-2002,05:00,11.3,R,ugm-3,40.3,R,ugm-3,57.5,R,ugm-3,2,R,ugm-3,5.1,R,ugm-3
05-01-2002,06:00,9.3,R,ugm-3,38.8,R,ugm-3,52.9,R,ugm-3,2,R,ugm-3,4.3,R,ugm-3
05-01-2002,07:00,10.1,R,ugm-3,40.9,R,ugm-3,56.3,R,ugm-3,2,R,ugm-3,4.3,R,ugm-3
05-01-2002,08:00,8.5,R,ugm-3,41.3,R,ugm-3,54.2,R,ugm-3,2,R,ugm-3,5.6,R,ugm-3
05-01-2002,09:00,12.6,R,ugm-3,40.7,R,ugm-3,60.0,R,ugm-3,2,R,ugm-3,4.8,R,ugm-3
05-01-2002,10:00,15.4,R,ugm-3,37.4,R,ugm-3,60.9,R,ugm-3,4,R,ugm-3,4.3,R,ugm-3
05-01-2002,11:00,18.4,R,ugm-3,36.7,R,ugm-3,64.7,R,ugm-3,4,R,ugm-3,4.5,R,ugm-3
05-01-2002,12:00,20.9,R,ugm-3,35.3,R,ugm-3,67.2,R,ugm-3,6,R,ugm-3,4.0,R,ugm-3
05-01-2002,13:00,30.0,R,ugm-3,39.7,R,ugm-3,85.6,R,ugm-3,4,R,ugm-3,3.7,R,ugm-3
05-01-2002,14:00,37.0,R,ugm-3,39.9,R,ugm-3,96.5,R,ugm-3,4,R,ugm-3,3.5,R,ugm-3
05-01-2002,15:00,38.8,R,ugm-3,40.9,R,ugm-3,100.1,R,ugm-3,4,R,ugm-3,2.9,R,ugm-3
05-01-2002,16:00,35.1,R,ugm-3,42.4,R,ugm-3,96.1,R,ugm-3,2,R,ugm-3,2.7,R,ugm-3
05-01-2002,17:00,33.1,R,ugm-3,44.1,R,ugm-3,94.7,R,ugm-3,2,R,ugm-3,2.1,R,ugm-3
05-01-2002,18:00,24.0,R,ugm-3,44.1,R,ugm-3,80.8,R,ugm-3,2,R,ugm-3,1.9,R,ugm-3
05-01-2002,19:00,20.1,R,ugm-3,40.3,R,ugm-3,71.1,R,ugm-3,2,R,ugm-3,1.1,R,ugm-3
05-01-2002,20:00,19.9,R,ugm-3,41.4,R,ugm-3,71.8,R,ugm-3,2,R,ugm-3,1.1,R,ugm-3
05-01-2002,21:00,16.1,R,ugm-3,42.2,R,ugm-3,66.9,R,ugm-3,2,R,ugm-3,1.1,R,ugm-3
05-01-2002,22:00,12.6,R,ugm-3,39.0,R,ugm-3,58.3,R,ugm-3,2,R,ugm-3,0.8,R,ugm-3
05-01-2002,23:00,12.8,R,ugm-3,38.0,R,ugm-3,57.5,R,ugm-3,2,R,ugm-3,1.3,R,ugm-3
05-01-2002,24:00,9.1,R,ugm-3,34.4,R,ugm-3,48.3,R,ugm-3,2,R,ugm-3,1.3,R,ugm-3
06-01-2002,01:00,3.4,R,ugm-3,29.8,R,ugm-3,35.0,R,ugm-3,2,R,ugm-3,2.1,R,ugm-3
06-01-2002,02:00,0.3,R,ugm-3,21.2,R,ugm-3,21.6,R,ugm-3,8,R,ugm-3,1.3,R,ugm-3
06-01-2002,03:00,0.0,R,ugm-3,17.0,R,ugm-3,17.0,R,ugm-3,14,R,ugm-3,1.6,R,ugm-3
06-01-2002,04:00,0.0,R,ugm-3,24.1,R,ugm-3,24.1,R,ugm-3,10,R,ugm-3,4.0,R,ugm-3
06-01-2002,05:00,0.0,R,ugm-3,24.6,R,ugm-3,24.6,R,ugm-3,8,R,ugm-3,4.5,R,ugm-3
06-01-2002,06:00,0.0,R,ugm-3,24.1,R,ugm-3,24.1,R,ugm-3,6,R,ugm-3,3.7,R,ugm-3
06-01-2002,07:00,0.0,R,ugm-3,17.4,R,ugm-3,17.4,R,ugm-3,8,R,ugm-3,1.6,R,ugm-3
06-01-2002,08:00,0.0,R,ugm-3,17.4,R,ugm-3,17.4,R,ugm-3,10,R,ugm-3,2.1,R,ugm-3
06-01-2002,09:00,0.0,R,ugm-3,14.5,R,ugm-3,14.5,R,ugm-3,18,R,ugm-3,2.1,R,ugm-3
06-01-2002,10:00,0.3,R,ugm-3,11.1,R,ugm-3,11.5,R,ugm-3,24,R,ugm-3,1.3,R,ugm-3
06-01-2002,11:00,1.4,R,ugm-3,14.5,R,ugm-3,16.6,R,ugm-3,22,R,ugm-3,2.1,R,ugm-3
06-01-2002,12:00,1.6,R,ugm-3,13.8,R,ugm-3,16.2,R,ugm-3,24,R,ugm-3,2.4,R,ugm-3
06-01-2002,13:00,2.0,R,ugm-3,15.7,R,ugm-3,18.7,R,ugm-3,22,R,ugm-3,4.5,R,ugm-3
06-01-2002,14:00,0.4,R,ugm-3,13.0,R,ugm-3,13.6,R,ugm-3,30,R,ugm-3,5.3,R,ugm-3
06-01-2002,15:00,0.3,R,ugm-3,11.7,R,ugm-3,12.0,R,ugm-3,36,R,ugm-3,1.6,R,ugm-3
06-01-2002,16:00,0.0,R,ugm-3,10.5,R,ugm-3,10.5,R,ugm-3,32,R,ugm-3,0.5,R,ugm-3
06-01-2002,17:00,0.0,R,ugm-3,13.6,R,ugm-3,13.6,R,ugm-3,22,R,ugm-3,1.3,R,ugm-3
06-01-2002,18:00,0.0,R,ugm-3,20.8,R,ugm-3,20.8,R,ugm-3,8,R,ugm-3,1.1,R,ugm-3
06-01-2002,19:00,0.0,R,ugm-3,17.0,R,ugm-3,17.0,R,ugm-3,6,R,ugm-3,1.3,R,ugm-3
06-01-2002,20:00,0.0,R,ugm-3,17.0,R,ugm-3,17.0,R,ugm-3,6,R,ugm-3,1.1,R,ugm-3
06-01-2002,21:00,7.1,R,ugm-3,19.3,R,ugm-3,30.2,R,ugm-3,2,R,ugm-3,1.6,R,ugm-3
06-01-2002,22:00,23.6,R,ugm-3,28.7,R,ugm-3,64.7,R,ugm-3,2,R,ugm-3,2.9,R,ugm-3
06-01-2002,23:00,22.5,R,ugm-3,23.9,R,ugm-3,58.3,R,ugm-3,2,R,ugm-3,2.9,R,ugm-3
06-01-2002,24:00,16.6,R,ugm-3,23.1,R,ugm-3,48.5,R,ugm-3,2,R,ugm-3,2.9,R,ugm-3
07-01-2002,01:00,6.3,R,ugm-3,20.4,R,ugm-3,30.0,R,ugm-3,10,R,ugm-3,2.1,R,ugm-3
07-01-2002,02:00,0.0,R,ugm-3,10.7,R,ugm-3,10.7,R,ugm-3,22,R,ugm-3,2.1,R,ugm-3
07-01-2002,03:00,0.0,R,ugm-3,8.2,R,ugm-3,8.2,R,ugm-3,26,R,ugm-3,2.4,R,ugm-3
07-01-2002,04:00,0.0,R,ugm-3,4.8,R,ugm-3,4.8,R,ugm-3,34,R,ugm-3,1.1,R,ugm-3
07-01-2002,05:00,0.0,R,ugm-3,3.8,R,ugm-3,3.8,R,ugm-3,38,R,ugm-3,1.1,R,ugm-3
07-01-2002,06:00,0.0,R,ugm-3,3.4,R,ugm-3,3.4,R,ugm-3,34,R,ugm-3,1.1,R,ugm-3
07-01-2002,07:00,0.0,R,ugm-3,3.8,R,ugm-3,3.8,R,ugm-3,32,R,ugm-3,0.8,R,ugm-3
07-01-2002,08:00,0.0,R,ugm-3,5.2,R,ugm-3,5.2,R,ugm-3,30,R,ugm-3,0.5,R,ugm-3
07-01-2002,09:00,0.3,R,ugm-3,9.2,R,ugm-3,9.6,R,ugm-3,26,R,ugm-3,3.7,R,ugm-3
07-01-2002,10:00,0.0,R,ugm-3,14.5,R,ugm-3,14.5,R,ugm-3,18,R,ugm-3,4.8,R,ugm-3
07-01-2002,11:00,0.3,R,ugm-3,14.1,R,ugm-3,14.5,R,ugm-3,26,R,ugm-3,2.4,R,ugm-3
07-01-2002,12:00,0.3,R,ugm-3,8.2,R,ugm-3,8.6,R,ugm-3,38,R,ugm-3,3.7,R,ugm-3
07-01-2002,13:00,2.4,R,ugm-3,19.3,R,ugm-3,22.9,R,ugm-3,24,R,ugm-3,4.0,R,ugm-3
07-01-2002,14:00,4.4,R,ugm-3,28.3,R,ugm-3,35.0,R,ugm-3,12,R,ugm-3,2.7,R,ugm-3
07-01-2002,15:00,4.6,R,ugm-3,29.8,R,ugm-3,36.9,R,ugm-3,8,R,ugm-3,2.9,R,ugm-3
07-01-2002,16:00,6.8,R,ugm-3,26.7,R,ugm-3,37.1,R,ugm-3,4,R,ugm-3,3.2,R,ugm-3
07-01-2002,17:00,8.5,R,ugm-3,30.4,R,ugm-3,43.4,R,ugm-3,2,R,ugm-3,3.5,R,ugm-3
07-01-2002,18:00,11.4,R,ugm-3,30.2,R,ugm-3,47.6,R,ugm-3,2,R,ugm-3,3.7,R,ugm-3
07-01-2002,19:00,16.5,R,ugm-3,24.4,R,ugm-3,49.7,R,ugm-3,2,R,ugm-3,2.7,R,ugm-3
07-01-2002,20:00,20.3,R,ugm-3,25.6,R,ugm-3,56.5,R,ugm-3,2,R,ugm-3,2.7,R,ugm-3
07-01-2002,21:00,5.5,R,ugm-3,26.5,R,ugm-3,35.0,R,ugm-3,4,R,ugm-3,2.1,R,ugm-3
07-01-2002,22:00,2.4,R,ugm-3,30.8,R,ugm-3,34.4,R,ugm-3,2,R,ugm-3,2.1,R,ugm-3
07-01-2002,23:00,6.8,R,ugm-3,30.2,R,ugm-3,40.5,R,ugm-3,2,R,ugm-3,2.1,R,ugm-3
07-01-2002,24:00,7.8,R,ugm-3,28.3,R,ugm-3,40.1,R,ugm-3,2,R,ugm-3,2.1,R,ugm-3
08-01-2002,01:00,10.0,R,ugm-3,29.6,R,ugm-3,44.9,R,ugm-3,2,R,ugm-3,2.9,R,ugm-3
08-01-2002,02:00,10.8,R,ugm-3,27.9,R,ugm-3,44.3,R,ugm-3,2,R,ugm-3,2.7,R,ugm-3
08-01-2002,03:00,10.5,R,ugm-3,25.4,R,ugm-3,41.4,R,ugm-3,2,R,ugm-3,2.4,R,ugm-3
08-01-2002,04:00,9.6,R,ugm-3,24.1,R,ugm-3,38.8,R,ugm-3,2,R,ugm-3,2.1,R,ugm-3
08-01-2002,05:00,7.8,R,ugm-3,22.3,R,ugm-3,34.2,R,ugm-3,2,R,ugm-3,2.1,R,ugm-3
08-01-2002,06:00,1.6,R,ugm-3,20.6,R,ugm-3,23.1,R,ugm-3,2,R,ugm-3,2.1,R,ugm-3
08-01-2002,07:00,4.8,R,ugm-3,21.0,R,ugm-3,28.3,R,ugm-3,2,R,ugm-3,1.9,R,ugm-3
08-01-2002,08:00,4.8,R,ugm-3,21.4,R,ugm-3,28.7,R,ugm-3,2,R,ugm-3,1.1,R,ugm-3
08-01-2002,09:00,6.8,R,ugm-3,21.4,R,ugm-3,31.7,R,ugm-3,2,R,ugm-3,1.1,R,ugm-3
08-01-2002,10:00,21.9,R,ugm-3,23.7,R,ugm-3,57.1,R,ugm-3,2,R,ugm-3,1.9,R,ugm-3
08-01-2002,11:00,30.5,R,ugm-3,26.4,R,ugm-3,73.0,R,ugm-3,2,R,ugm-3,2.7,R,ugm-3
08-01-2002,12:00,14.0,R,ugm-3,31.5,R,ugm-3,52.9,R,ugm-3,6,R,ugm-3,2.7,R,ugm-3
08-01-2002,13:00,2.4,R,ugm-3,25.4,R,ugm-3,29.0,R,ugm-3,12,R,ugm-3,2.4,R,ugm-3
08-01-2002,14:00,2.8,R,ugm-3,25.2,R,ugm-3,29.4,R,ugm-3,8,R,ugm-3,2.1,R,ugm-3
08-01-2002,15:00,3.4,R,ugm-3,26.0,R,ugm-3,31.1,R,ugm-3,8,R,ugm-3,2.1,R,ugm-3
08-01-2002,16:00,6.5,R,ugm-3,32.7,R,ugm-3,42.6,R,ugm-3,4,R,ugm-3,1.9,R,ugm-3
08-01-2002,17:00,4.4,R,ugm-3,30.0,R,ugm-3,36.7,R,ugm-3,8,R,ugm-3,1.6,R,ugm-3
08-01-2002,18:00,1.4,R,ugm-3,30.8,R,ugm-3,32.9,R,ugm-3,6,R,ugm-3,1.1,R,ugm-3
08-01-2002,19:00,0.0,R,ugm-3,24.8,R,ugm-3,24.8,R,ugm-3,12,R,ugm-3,1.1,R,ugm-3
08-01-2002,20:00,0.0,R,ugm-3,26.0,R,ugm-3,26.0,R,ugm-3,10,R,ugm-3,1.3,R,ugm-3
08-01-2002,21:00,0.4,R,ugm-3,29.8,R,ugm-3,30.4,R,ugm-3,4,R,ugm-3,1.6,R,ugm-3
08-01-2002,22:00,1.0,R,ugm-3,37.8,R,ugm-3,39.3,R,ugm-3,4,R,ugm-3,3.2,R,ugm-3
08-01-2002,23:00,0.0,R,ugm-3,30.2,R,ugm-3,30.2,R,ugm-3,8,R,ugm-3,2.1,R,ugm-3
08-01-2002,24:00,0.0,R,ugm-3,20.4,R,ugm-3,20.4,R,ugm-3,12,R,ugm-3,1.9,R,ugm-3
09-01-2002,01:00,0.0,R,ugm-3,20.4,R,ugm-3,20.4,R,ugm-3,10,R,ugm-3,2.1,R,ugm-3
09-01-2002,02:00,0.0,R,ugm-3,17.8,R,ugm-3,17.8,R,ugm-3,18,R,ugm-3,4.0,R,ugm-3
09-01-2002,03:00,0.0,R,ugm-3,19.7,R,ugm-3,19.7,R,ugm-3,14,R,ugm-3,4.3,R,ugm-3
09-01-2002,04:00,0.0,R,ugm-3,23.9,R,ugm-3,23.9,R,ugm-3,10,R,ugm-3,6.7,R,ugm-3
09-01-2002,05:00,0.0,R,ugm-3,23.5,R,ugm-3,23.5,R,ugm-3,6,R,ugm-3,7.4,R,ugm-3
09-01-2002,06:00,0.8,R,ugm-3,26.9,R,ugm-3,28.1,R,ugm-3,4,R,ugm-3,6.9,R,ugm-3
09-01-2002,07:00,2.6,R,ugm-3,31.5,R,ugm-3,35.5,R,ugm-3,2,R,ugm-3,4.3,R,ugm-3
09-01-2002,08:00,5.9,R,ugm-3,33.8,R,ugm-3,42.8,R,ugm-3,2,R,ugm-3,3.7,R,ugm-3
09-01-2002,09:00,12.0,R,ugm-3,31.7,R,ugm-3,50.0,R,ugm-3,4,R,ugm-3,2.9,R,ugm-3
09-01-2002,10:00,14.1,R,ugm-3,28.8,R,ugm-3,50.4,R,ugm-3,6,R,ugm-3,2.7,R,ugm-3
09-01-2002,11:00,9.1,R,ugm-3,26.4,R,ugm-3,40.3,R,ugm-3,12,R,ugm-3,3.2,R,ugm-3
09-01-2002,12:00,7.8,R,ugm-3,27.7,R,ugm-3,39.5,R,ugm-3,12,R,ugm-3,4.3,R,ugm-3
09-01-2002,13:00,5.9,R,ugm-3,27.7,R,ugm-3,36.7,R,ugm-3,12,R,ugm-3,3.5,R,ugm-3
09-01-2002,14:00,3.8,R,ugm-3,28.8,R,ugm-3,34.6,R,ugm-3,14,R,ugm-3,5.1,R,ugm-3
09-01-2002,15:00,4.1,R,ugm-3,32.1,R,ugm-3,38.4,R,ugm-3,12,R,ugm-3,3.5,R,ugm-3
09-01-2002,16:00,2.8,R,ugm-3,36.5,R,ugm-3,40.7,R,ugm-3,12,R,ugm-3,3.5,R,ugm-3
09-01-2002,17:00,3.0,R,ugm-3,44.1,R,ugm-3,48.7,R,ugm-3,4,R,ugm-3,4.5,R,ugm-3
09-01-2002,18:00,7.3,R,ugm-3,48.7,R,ugm-3,59.8,R,ugm-3,2,R,ugm-3,6.9,R,ugm-3
09-01-2002,19:00,10.5,R,ugm-3,54.6,R,ugm-3,70.7,R,ugm-3,4,R,ugm-3,8.0,R,ugm-3
09-01-2002,20:00,18.1,R,ugm-3,57.9,R,ugm-3,85.6,R,ugm-3,4,R,ugm-3,9.0,R,ugm-3
09-01-2002,21:00,23.0,R,ugm-3,53.3,R,ugm-3,88.4,R,ugm-3,2,R,ugm-3,10.1,R,ugm-3
09-01-2002,22:00,25.6,R,ugm-3,48.9,R,ugm-3,88.1,R,ugm-3,2,R,ugm-3,6.7,R,ugm-3
09-01-2002,23:00,24.3,R,ugm-3,46.0,R,ugm-3,83.1,R,ugm-3,2,R,ugm-3,4.5,R,ugm-3
09-01-2002,24:00,24.3,R,ugm-3,48.5,R,ugm-3,85.6,R,ugm-3,2,R,ugm-3,5.1,R,ugm-3
10-01-2002,01:00,20.5,R,ugm-3,47.6,R,ugm-3,78.9,R,ugm-3,2,R,ugm-3,5.1,R,ugm-3
10-01-2002,02:00,14.1,R,ugm-3,45.8,R,ugm-3,67.4,R,ugm-3,2,R,ugm-3,5.9,R,ugm-3
10-01-2002,03:00,11.0,R,ugm-3,45.6,R,ugm-3,62.5,R,ugm-3,2,R,ugm-3,4.3,R,ugm-3
10-01-2002,04:00,10.9,R,ugm-3,47.4,R,ugm-3,64.0,R,ugm-3,2,R,ugm-3,4.3,R,ugm-3
10-01-2002,05:00,12.8,R,ugm-3,49.5,R,ugm-3,69.0,R,ugm-3,2,R,ugm-3,3.7,R,ugm-3
10-01-2002,06:00,16.4,R,ugm-3,49.3,R,ugm-3,74.3,R,ugm-3,2,R,ugm-3,3.7,R,ugm-3
10-01-2002,07:00,20.6,R,ugm-3,53.7,R,ugm-3,85.2,R,ugm-3,2,R,ugm-3,4.5,R,ugm-3
10-01-2002,08:00,17.8,R,ugm-3,53.1,R,ugm-3,80.2,R,ugm-3,2,R,ugm-3,5.9,R,ugm-3
10-01-2002,09:00,18.5,R,ugm-3,51.4,R,ugm-3,79.6,R,ugm-3,2,R,ugm-3,8.2,R,ugm-3
10-01-2002,10:00,19.1,R,ugm-3,50.0,R,ugm-3,79.3,R,ugm-3,4,R,ugm-3,18.6,R,ugm-3
10-01-2002,11:00,15.5,R,ugm-3,44.9,R,ugm-3,68.6,R,ugm-3,4,R,ugm-3,9.6,R,ugm-3
10-01-2002,12:00,15.8,R,ugm-3,44.9,R,ugm-3,69.0,R,ugm-3,6,R,ugm-3,5.6,R,ugm-3
10-01-2002,13:00,14.8,R,ugm-3,43.0,R,ugm-3,65.5,R,ugm-3,8,R,ugm-3,7.4,R,ugm-3
10-01-2002,14:00,10.6,R,ugm-3,36.1,R,ugm-3,52.3,R,ugm-3,12,R,ugm-3,4.5,R,ugm-3
10-01-2002,15:00,6.5,R,ugm-3,30.8,R,ugm-3,40.7,R,ugm-3,12,R,ugm-3,2.9,R,ugm-3
10-01-2002,16:00,8.5,R,ugm-3,34.2,R,ugm-3,47.2,R,ugm-3,6,R,ugm-3,2.1,R,ugm-3
10-01-2002,17:00,16.0,R,ugm-3,43.0,R,ugm-3,67.4,R,ugm-3,2,R,ugm-3,4.5,R,ugm-3
10-01-2002,18:00,8.3,R,ugm-3,43.0,R,ugm-3,55.6,R,ugm-3,2,R,ugm-3,4.5,R,ugm-3
10-01-2002,19:00,8.1,R,ugm-3,41.6,R,ugm-3,54.1,R,ugm-3,2,R,ugm-3,3.2,R,ugm-3
10-01-2002,20:00,1.6,R,ugm-3,35.0,R,ugm-3,37.4,R,ugm-3,6,R,ugm-3,2.7,R,ugm-3
10-01-2002,21:00,0.0,R,ugm-3,25.4,R,ugm-3,25.4,R,ugm-3,12,R,ugm-3,2.7,R,ugm-3
10-01-2002,22:00,0.0,R,ugm-3,29.2,R,ugm-3,29.2,R,ugm-3,10,R,ugm-3,2.4,R,ugm-3
10-01-2002,23:00,0.0,R,ugm-3,21.0,R,ugm-3,21.0,R,ugm-3,24,R,ugm-3,0.5,R,ugm-3
10-01-2002,24:00,0.0,R,ugm-3,26.2,R,ugm-3,26.2,R,ugm-3,14,R,ugm-3,0.5,R,ugm-3
11-01-2002,01:00,0.0,R,ugm-3,28.7,R,ugm-3,28.7,R,ugm-3,8,R,ugm-3,0.5,R,ugm-3
11-01-2002,02:00,0.5,R,ugm-3,29.0,R,ugm-3,29.8,R,ugm-3,8,R,ugm-3,6.9,R,ugm-3
11-01-2002,03:00,0.0,R,ugm-3,28.5,R,ugm-3,28.5,R,ugm-3,10,R,ugm-3,1.9,R,ugm-3
11-01-2002,04:00,2.0,R,ugm-3,33.0,R,ugm-3,36.1,R,ugm-3,4,R,ugm-3,1.1,R,ugm-3
11-01-2002,05:00,6.9,R,ugm-3,36.9,R,ugm-3,47.4,R,ugm-3,2,R,ugm-3,1.6,R,ugm-3
11-01-2002,06:00,5.4,R,ugm-3,37.8,R,ugm-3,46.0,R,ugm-3,2,R,ugm-3,1.6,R,ugm-3
11-01-2002,07:00,1.8,R,ugm-3,35.1,R,ugm-3,37.8,R,ugm-3,2,R,ugm-3,4.3,R,ugm-3
11-01-2002,08:00,1.0,R,ugm-3,36.3,R,ugm-3,37.8,R,ugm-3,2,R,ugm-3,3.7,R,ugm-3
11-01-2002,09:00,3.4,R,ugm-3,33.2,R,ugm-3,38.4,R,ugm-3,6,R,ugm-3,3.5,R,ugm-3
11-01-2002,10:00,6.5,R,ugm-3,31.7,R,ugm-3,41.6,R,ugm-3,8,R,ugm-3,5.9,R,ugm-3
11-01-2002,11:00,6.3,R,ugm-3,28.7,R,ugm-3,38.2,R,ugm-3,12,R,ugm-3,4.3,R,ugm-3
11-01-2002,12:00,6.3,R,ugm-3,25.2,R,ugm-3,34.8,R,ugm-3,14,R,ugm-3,4.8,R,ugm-3
11-01-2002,13:00,7.5,R,ugm-3,26.9,R,ugm-3,38.4,R,ugm-3,14,R,ugm-3,4.3,R,ugm-3
11-01-2002,14:00,,,,,,,,,,12,R,ugm-3,2.4,R,ugm-3
11-01-2002,15:00,,,,,,,,,,6,R,ugm-3,2.7,R,ugm-3
11-01-2002,16:00,22.3,R,ugm-3,38.2,R,ugm-3,72.2,R,ugm-3,4,R,ugm-3,3.2,R,ugm-3
11-01-2002,17:00,28.0,R,ugm-3,39.0,R,ugm-3,81.7,R,ugm-3,2,R,ugm-3,3.5,R,ugm-3
11-01-2002,18:00,35.0,R,ugm-3,40.1,R,ugm-3,93.6,R,ugm-3,2,R,ugm-3,3.2,R,ugm-3
11-01-2002,19:00,24.6,R,ugm-3,40.7,R,ugm-3,78.3,R,ugm-3,2,R,ugm-3,3.2,R,ugm-3
11-01-2002,20:00,21.0,R,ugm-3,41.8,R,ugm-3,73.9,R,ugm-3,2,R,ugm-3,4.3,R,ugm-3
11-01-2002,21:00,8.1,R,ugm-3,39.7,R,ugm-3,52.1,R,ugm-3,2,R,ugm-3,3.2,R,ugm-3
11-01-2002,22:00,6.4,R,ugm-3,40.7,R,ugm-3,50.4,R,ugm-3,2,R,ugm-3,2.7,R,ugm-3
11-01-2002,23:00,4.4,R,ugm-3,40.7,R,ugm-3,47.4,R,ugm-3,2,R,ugm-3,3.2,R,ugm-3
11-01-2002,24:00,0.0,R,ugm-3,30.6,R,ugm-3,30.6,R,ugm-3,10,R,ugm-3,2.4,R,ugm-3
12-01-2002,01:00,0.8,R,ugm-3,13.8,R,ugm-3,14.9,R,ugm-3,28,R,ugm-3,1.3,R,ugm-3
12-01-2002,02:00,0.8,R,ugm-3,10.3,R,ugm-3,11.5,R,ugm-3,32,R,ugm-3,1.1,R,ugm-3
12-01-2002,03:00,0.8,R,ugm-3,11.8,R,ugm-3,13.0,R,ugm-3,28,R,ugm-3,1.3,R,ugm-3
12-01-2002,04:00,0.8,R,ugm-3,27.7,R,ugm-3,28.8,R,ugm-3,6,R,ugm-3,1.3,R,ugm-3
12-01-2002,05:00,0.8,R,ugm-3,23.9,R,ugm-3,25.0,R,ugm-3,8,R,ugm-3,1.1,R,ugm-3
12-01-2002,06:00,0.8,R,ugm-3,24.3,R,ugm-3,25.4,R,ugm-3,6,R,ugm-3,1.1,R,ugm-3
12-01-2002,07:00,0.8,R,ugm-3,21.2,R,ugm-3,22.3,R,ugm-3,10,R,ugm-3,1.1,R,ugm-3
12-01-2002,08:00,0.6,R,ugm-3,16.4,R,ugm-3,17.4,R,ugm-3,12,R,ugm-3,0.8,R,ugm-3
12-01-2002,09:00,1.0,R,ugm-3,15.3,R,ugm-3,16.8,R,ugm-3,16,R,ugm-3,0.5,R,ugm-3
12-01-2002,10:00,3.4,R,ugm-3,16.8,R,ugm-3,22.0,R,ugm-3,16,R,ugm-3,1.9,R,ugm-3
12-01-2002,11:00,4.0,R,ugm-3,16.4,R,ugm-3,22.5,R,ugm-3,24,R,ugm-3,2.4,R,ugm-3
12-01-2002,12:00,8.9,R,ugm-3,22.3,R,ugm-3,35.9,R,ugm-3,22,R,ugm-3,2.7,R,ugm-3
12-01-2002,13:00,14.1,R,ugm-3,31.3,R,ugm-3,52.9,R,ugm-3,18,R,ugm-3,2.7,R,ugm-3
12-01-2002,14:00,22.6,R,ugm-3,44.3,R,ugm-3,78.9,R,ugm-3,14,R,ugm-3,2.9,R,ugm-3
12-01-2002,15:00,15.8,R,ugm-3,38.4,R,ugm-3,62.5,R,ugm-3,12,R,ugm-3,2.4,R,ugm-3
12-01-2002,16:00,0.8,R,ugm-3,17.0,R,ugm-3,18.1,R,ugm-3,24,R,ugm-3,1.1,R,ugm-3
12-01-2002,17:00,0.8,R,ugm-3,17.8,R,ugm-3,18.9,R,ugm-3,20,R,ugm-3,1.3,R,ugm-3
12-01-2002,18:00,0.8,R,ugm-3,18.1,R,ugm-3,19.3,R,ugm-3,20,R,ugm-3,1.6,R,ugm-3
12-01-2002,19:00,0.8,R,ugm-3,12.6,R,ugm-3,13.8,R,ugm-3,28,R,ugm-3,1.1,R,ugm-3
12-01-2002,20:00,0.8,R,ugm-3,12.6,R,ugm-3,13.8,R,ugm-3,28,R,ugm-3,1.3,R,ugm-3
12-01-2002,21:00,0.8,R,ugm-3,13.9,R,ugm-3,15.1,R,ugm-3,26,R,ugm-3,2.7,R,ugm-3
12-01-2002,22:00,0.8,R,ugm-3,13.6,R,ugm-3,14.7,R,ugm-3,30,R,ugm-3,2.9,R,ugm-3
12-01-2002,23:00,0.8,R,ugm-3,12.6,R,ugm-3,13.8,R,ugm-3,30,R,ugm-3,2.9,R,ugm-3
12-01-2002,24:00,0.8,R,ugm-3,12.6,R,ugm-3,13.8,R,ugm-3,28,R,ugm-3,2.9,R,ugm-3
13-01-2002,01:00,0.8,R,ugm-3,12.6,R,ugm-3,13.8,R,ugm-3,32,R,ugm-3,3.2,R,ugm-3
13-01-2002,02:00,0.8,R,ugm-3,12.6,R,ugm-3,13.8,R,ugm-3,30,R,ugm-3,4.5,R,ugm-3
13-01-2002,03:00,0.8,R,ugm-3,13.9,R,ugm-3,15.1,R,ugm-3,28,R,ugm-3,4.8,R,ugm-3
13-01-2002,04:00,0.8,R,ugm-3,13.9,R,ugm-3,15.1,R,ugm-3,28,R,ugm-3,4.0,R,ugm-3
13-01-2002,05:00,0.8,R,ugm-3,12.2,R,ugm-3,13.4,R,ugm-3,28,R,ugm-3,2.9,R,ugm-3
13-01-2002,06:00,0.8,R,ugm-3,10.1,R,ugm-3,11.3,R,ugm-3,28,R,ugm-3,2.1,R,ugm-3
13-01-2002,07:00,0.6,R,ugm-3,9.6,R,ugm-3,10.5,R,ugm-3,28,R,ugm-3,2.1,R,ugm-3
13-01-2002,08:00,0.8,R,ugm-3,9.2,R,ugm-3,10.3,R,ugm-3,28,R,ugm-3,2.1,R,ugm-3
13-01-2002,09:00,0.8,R,ugm-3,10.1,R,ugm-3,11.3,R,ugm-3,28,R,ugm-3,1.9,R,ugm-3
13-01-2002,10:00,0.8,R,ugm-3,12.6,R,ugm-3,13.8,R,ugm-3,26,R,ugm-3,1.6,R,ugm-3
13-01-2002,11:00,,,,,,,,,,,,,,,
13-01-2002,12:00,1.4,R,ugm-3,13.9,R,ugm-3,16.0,R,ugm-3,26,R,ugm-3,1.1,R,ugm-3
13-01-2002,13:00,2.3,R,ugm-3,13.6,R,ugm-3,17.0,R,ugm-3,22,R,ugm-3,1.1,R,ugm-3
13-01-2002,14:00,2.4,R,ugm-3,17.6,R,ugm-3,21.2,R,ugm-3,22,R,ugm-3,1.1,R,ugm-3
13-01-2002,15:00,2.6,R,ugm-3,16.8,R,ugm-3,20.8,R,ugm-3,24,R,ugm-3,1.1,R,ugm-3
13-01-2002,16:00,1.6,R,ugm-3,17.0,R,ugm-3,19.5,R,ugm-3,22,R,ugm-3,0.8,R,ugm-3
13-01-2002,17:00,0.8,R,ugm-3,21.2,R,ugm-3,22.3,R,ugm-3,16,R,ugm-3,1.1,R,ugm-3
13-01-2002,18:00,0.8,R,ugm-3,26.0,R,ugm-3,27.1,R,ugm-3,10,R,ugm-3,1.1,R,ugm-3
13-01-2002,19:00,0.8,R,ugm-3,26.0,R,ugm-3,27.1,R,ugm-3,8,R,ugm-3,1.1,R,ugm-3
13-01-2002,20:00,0.8,R,ugm-3,21.6,R,ugm-3,22.7,R,ugm-3,14,R,ugm-3,1.1,R,ugm-3